Location: Carri�res
(48.9069°N, 2.1792°E)
Time: 11:38:34
(UTC+00:00)

deb Kosmos- 1898 - Pass Details

Date: 04 August 2021
Orbit: 731 x 754 km, 74.0° (Epoch: 18 September)

Event Time Altitude Azimuth Distance (km) Brightness Sun altitude
Exits shadow 00:03:18 14° 104° (ESE) 2,025 ? -23.8°
Maximum altitude 00:04:06 14° 93° (E) 2,000 ? -23.8°
Drops below altitude 10° 00:06:40 10° 63° (ENE) 2,274 ? -23.8°
Sets 00:10:09 0° 39° (NE) 3,209 ? -23.8°
